Location: Malvern Link
(52.1333°N, 2.3000°W)
Time: 11:39:42
(UTC+00:00)

Cosmos 1674 - Pass Details

Date: 18 September 2020
Orbit: 494 x 518 km, 82.5° (Epoch: 30 October)

Event Time Altitude Azimuth Distance (km) Brightness Sun altitude
Rises 20:36:58 0° 344° (NNW) 2,656 7.1 -21.2°
Reaches altitude 10° 20:39:10 10° 338° (NNW) 1,764 6.1 -21.5°
Maximum altitude 20:42:52 45° 266° (W) 719 3.7 -22.0°
Enters shadow 20:44:21 30° 213° (SSW) 963 4.0 -22.2°
